Regional Weather Roundup
Issued by NWS

Home | Current Version | Previous Version | Graphics & Text | Print | Product List | Glossary On
Versions: 1 2 3 4 5 6 7 8 9 10 11 12 13 14 15 16 17 18 19 20 21 22 23 24 25 26 27 28 29 30 31 32 33 34 35 36 37 38 39 40 41 42 43 44 45 46 47 48 49 50
755
ASUS43 KDTX 251710
RWRMI
MICHIGAN HOURLY REGIONAL WEATHER ROUNDUP
NATIONAL WEATHER SERVICE DETROIT/PONTIAC MI
100 PM EDT THU MAY 25 2017

NOTE: "FAIR" INDICATES FEW OR NO CLOUDS BELOW 12,000 FEET WITH NO
SIGNIFICANT WEATHER AND/OR OBSTRUCTION TO VISIBILITY.

MIZ047>049-052>055-059>063-066>070-074>076-081>083-251800-
SOUTHEAST LOWER MICHIGAN

CITY           SKY/WX    TMP DP  RH WIND       PRES   REMARKS
ADRIAN         CLOUDY    61  58  90 N9        29.49R
ALMA           CLOUDY    59  56  92 N9        29.56S
ANN ARBOR      CLOUDY    61  58  90 NW8       29.48R
BAD AXE        CLOUDY    55  55 100 NE5       29.53S FOG
CARO           CLOUDY    59  57  94 N5        29.51S
DETROIT CITY   LGT RAIN  60  59  96 N7        29.48S
DETROIT        LGT RAIN  61  60  97 NE3       29.47F
FLINT          CLOUDY    57  56  96 N9        29.51R
GROSSE ILE     LGT RAIN  60  58  93 NE5       29.46S
HILLSDALE      CLOUDY    59  55  88 NW13      29.51R
HOWELL         CLOUDY    58  55  91 N6        29.51R FOG

CITY           SKY/WX    TMP DP  RH WIND       PRES   REMARKS
JACKSON        CLOUDY    59  56  89 N8        29.52R FOG
LAMBERTVILLE   CLOUDY    60  58  92 CALM      29.47S
LANSING        CLOUDY    58  54  86 NW12      29.55R FOG
LAPEER         CLOUDY    60  58  93 NE6       29.51R
MASON          CLOUDY    58  56  94 N9G17     29.53R
MONROE         LGT RAIN  60  58  93 N6        29.47R
PONTIAC        CLOUDY    60  56  86 NE7       29.48S
PORT HOPE        N/A     50  49  96 E13       29.52R
PORT HURON     DRIZZLE   57  55  94 E3        29.49S
TRI CITIES     CLOUDY    57  56  96 NE15      29.55R FOG
MIDLAND        CLOUDY    60  54  79 NE3       29.54S
TROY           DRIZZLE   60  57  92 N3        29.50S
SAGINAW HB     CLOUDY    55  52  88 N10       29.53R FOG
$$
MIZ043>046-050>051-056>058-064>065-071>073-077>080-251800-
SOUTHWEST LOWER MICHIGAN

CITY           SKY/WX    TMP DP  RH WIND       PRES   REMARKS
BATTLE CREEK   CLOUDY    59  57  93 N9        29.55R
BENTON HARBOR  CLOUDY    55  51  86 VRB3      29.58R
BIG RAPIDS     CLOUDY    58  53  81 N7        29.59R
COLDWATER      CLOUDY    58  58 100 NW9       29.53S FOG
FREMONT        CLOUDY    61  54  77 N8        29.58S
HOLLAND        CLOUDY    61  54  77 VRB7      29.57S
GRAND RAPIDS   CLOUDY    62  57  83 N8        29.56R
IONIA          CLOUDY    60  56  85 N9        29.55R
KALAMAZOO      CLOUDY    59  54  83 N10       29.56R
LUDINGTON      PTSUNNY   64  55  74 N13       29.59S
MARSHALL       CLOUDY    58  57  99 N5        29.53S FOG
MOUNT PLEASANT PTSUNNY   61  55  79 N10G17    29.55S
MUSKEGON       CLOUDY    64  55  72 N9        29.58S
SOUTH HAVEN    CLOUDY    61  56  85 N8        29.57S
$$
MIZ016>042-251800-
NORTHERN LOWER MICHIGAN

CITY           SKY/WX    TMP DP  RH WIND       PRES   REMARKS
ALPENA         CLOUDY    54  54 100 NE16      29.60F FOG
BEAVER ISLAND  DRIZZLE   59  55  86 N8        29.68S
BELLAIRE       CLOUDY    57  53  86 N9        29.64R
CADILLAC       CLOUDY    56  54  92 NE9G17    29.60S
CHARLEVOIX     CLOUDY    57  55  93 N9        29.67S
FRANKFORT      PTSUNNY   62  52  71 N10       29.63S
GAYLORD        CLOUDY    54  51  90 NE10      29.62S FOG
GRAYLING       CLOUDY    55  53  93 N8        29.60F
HARBOR SPRINGS CLOUDY    57  56  94 NE9       29.64S
HOUGHTON LAKE  CLOUDY    57  54  89 N9        29.59R
MANISTEE       CLOUDY    62  53  72 NW13      29.60F
OSCODA         CLOUDY    50  50  97 N8        29.56S FOG
PELLSTON       CLOUDY    58  53  84 NE10      29.65S
ROGERS CITY    DRIZZLE   49  49  98 NE7       29.64S
TRAVERSE CITY  LGT RAIN  57  53  86 NE5       29.62R
$$
MIZ007>008-015-251800-
EASTERN UPPER MICHIGAN

CITY           SKY/WX    TMP DP  RH WIND       PRES   REMARKS
KINROSS        CLOUDY    62  55  77 NE16G24   29.67F
MACKINAC ISLAN CLOUDY    60  59  97 NE8       29.65F
NEWBERRY       CLOUDY    64  52  65 E13G20    29.69F
S. S. MARIE    CLOUDY    64  55  72 NE8       29.67F
MUNISING         N/A     50  44  80 N8        29.72F
$$
MIZ004>006-011>014-085-251800-
CENTRAL UPPER MICHIGAN

CITY           SKY/WX    TMP DP  RH WIND       PRES   REMARKS
MANISTIQUE     CLOUDY    61  50  67 NE10G16   29.68F
ESCANABA       CLOUDY    65  51  60 NE9       29.69S
MENOMINEE      SUNNY     62  52  69 E14       29.70R
SAWYER-GWINN   SUNNY     61  48  63 NE15      29.74S
$$
MIZ001>003-009>011-084-251800-
WESTERN UPPER MICHIGAN

CITY           SKY/WX    TMP DP  RH WIND       PRES   REMARKS
IRON MOUNTAIN  MOSUNNY   68  48  48 NE9G18    29.69S
HOUGHTON       SUNNY     64  46  52 E9G17     29.73F
COPPER HARBOR    N/A     47  41  80 NE3       29.76S
IRONWOOD       CLOUDY    64  47  53 NE7       29.72F
$$

ABBREVIATIONS USED IN REMARKS
   TC - TEMPERATURE IN CELSIUS
  WCI - WIND CHILL INDEX
   HX - HEAT INDEX
  VSB - VISIBILITY





USA.gov is the U.S. government's official web portal to all federal, state and local government web resources and services.